When you browse on this site, cookies collect data to enhance your experience and personalize the content and advertising you see.
Visit our Privacy Policy to learn more. By continuing to use the site, you agree to this use of cookies and data.
  • In Österreich
  • Länderverzeichnis
  • Für 7 Tage
  • Wassertemperatur
  • Wetterkarte
  • News
  • Widgets
  • user-avatar
    Anmelden

    Stündliche Wetter Rio Piedras

    Heute, 15 September, Sonntag

    Zeit Temperatur Niederschläge Wind Luftdruck Luftfeuchtigkeit
    00:00 +29°C° 0.1 mm 3 m/S 757 mmHg 90%
    01:00 +29°C° 0.1 mm 3 m/S 756 mmHg 90%
    02:00 +28°C° 0.1 mm 3 m/S 756 mmHg 90%
    03:00 +28°C° 0.1 mm 3 m/S 756 mmHg 90%
    04:00 +28°C° 0.1 mm 3 m/S 756 mmHg 90%
    05:00 +28°C° 0.1 mm 3 m/S 756 mmHg 91%
    06:00 +29°C° 0.1 mm 3 m/S 756 mmHg 88%
    07:00 +29°C° 0.1 mm 4 m/S 756 mmHg 86%
    08:00 +30°C° 0.1 mm 4 m/S 757 mmHg 84%
    09:00 +32°C° 0.2 mm 4 m/S 757 mmHg 81%
    10:00 +32°C° 0.2 mm 4 m/S 757 mmHg 78%
    11:00 +33°C° 0.2 mm 5 m/S 757 mmHg 75%
    12:00 +33°C° 0.9 mm 5 m/S 756 mmHg 75%
    13:00 +33°C° 0.9 mm 5 m/S 756 mmHg 75%
    14:00 +33°C° 0.9 mm 5 m/S 756 mmHg 75%
    15:00 +33°C° 0.3 mm 5 m/S 755 mmHg 76%
    16:00 +32°C° 0.3 mm 5 m/S 755 mmHg 78%
    17:00 +32°C° 0.3 mm 5 m/S 755 mmHg 79%
    18:00 +30°C° 0.1 mm 4 m/S 755 mmHg 82%
    19:00 +30°C° 0.1 mm 4 m/S 755 mmHg 85%
    20:00 +29°C° 0.1 mm 4 m/S 756 mmHg 88%
    21:00 +29°C° 0.3 mm 3 m/S 756 mmHg 89%
    22:00 +29°C° 0.3 mm 3 m/S 756 mmHg 89%
    23:00 +28°C° 0.3 mm 3 m/S 757 mmHg 89%

    Morgen, 16 September, Montag

    Zeit Temperatur Niederschläge Wind Luftdruck Luftfeuchtigkeit
    00:00 +28°C° 0.1 mm 3 m/S 756 mmHg 89%
    01:00 +28°C° 0.1 mm 3 m/S 755 mmHg 89%
    02:00 +28°C° 0.1 mm 3 m/S 755 mmHg 89%
    03:00 +28°C° 0.1 mm 3 m/S 755 mmHg 89%
    04:00 +28°C° 0.1 mm 2 m/S 755 mmHg 89%
    05:00 +28°C° 0.1 mm 2 m/S 755 mmHg 89%
    06:00 +28°C° 0 mm 2 m/S 756 mmHg 86%
    07:00 +29°C° 0 mm 3 m/S 756 mmHg 83%
    08:00 +30°C° 0 mm 3 m/S 756 mmHg 80%
    09:00 +32°C° 0 mm 4 m/S 757 mmHg 77%
    10:00 +33°C° 0 mm 4 m/S 757 mmHg 73%
    11:00 +33°C° 0 mm 5 m/S 757 mmHg 69%
    12:00 +33°C° 0.2 mm 5 m/S 756 mmHg 70%
    13:00 +33°C° 0.2 mm 5 m/S 756 mmHg 70%
    14:00 +33°C° 0.2 mm 5 m/S 755 mmHg 71%
    15:00 +33°C° 0.1 mm 5 m/S 755 mmHg 73%
    16:00 +33°C° 0.1 mm 4 m/S 755 mmHg 74%
    17:00 +32°C° 0.1 mm 4 m/S 754 mmHg 76%
    18:00 +30°C° 0.1 mm 4 m/S 755 mmHg 80%
    19:00 +30°C° 0.1 mm 4 m/S 755 mmHg 84%
    20:00 +29°C° 0.1 mm 3 m/S 755 mmHg 88%
    21:00 +29°C° 0.1 mm 3 m/S 756 mmHg 88%
    22:00 +28°C° 0.1 mm 3 m/S 756 mmHg 88%
    23:00 +28°C° 0.1 mm 3 m/S 756 mmHg 88%

    übermorgen, 17 September, Dienstag

    Zeit Temperatur Niederschläge Wind Luftdruck Luftfeuchtigkeit
    00:00 +28°C° 0.1 mm 2 m/S 756 mmHg 88%
    01:00 +28°C° 0.1 mm 2 m/S 755 mmHg 88%
    02:00 +28°C° 0.1 mm 2 m/S 755 mmHg 88%
    03:00 +28°C° 0.1 mm 2 m/S 755 mmHg 88%
    04:00 +28°C° 0.1 mm 2 m/S 755 mmHg 89%
    05:00 +28°C° 0.1 mm 2 m/S 755 mmHg 89%
    06:00 +28°C° 0.1 mm 3 m/S 755 mmHg 87%
    07:00 +29°C° 0.1 mm 3 m/S 756 mmHg 84%
    08:00 +30°C° 0.1 mm 3 m/S 756 mmHg 82%
    09:00 +32°C° 0 mm 4 m/S 756 mmHg 77%
    10:00 +33°C° 0 mm 4 m/S 756 mmHg 73%
    11:00 +33°C° 0 mm 5 m/S 756 mmHg 68%
    12:00 +34°C° 0 mm 5 m/S 756 mmHg 67%
    13:00 +34°C° 0 mm 5 m/S 755 mmHg 66%
    14:00 +34°C° 0 mm 5 m/S 755 mmHg 64%
    15:00 +34°C° 0 mm 5 m/S 755 mmHg 67%
    16:00 +33°C° 0 mm 4 m/S 755 mmHg 69%
    17:00 +33°C° 0 mm 4 m/S 754 mmHg 72%
    18:00 +32°C° 0.1 mm 4 m/S 755 mmHg 77%
    19:00 +30°C° 0.1 mm 3 m/S 755 mmHg 81%
    20:00 +29°C° 0.1 mm 3 m/S 755 mmHg 86%
    21:00 +29°C° 0 mm 3 m/S 755 mmHg 86%
    22:00 +29°C° 0 mm 3 m/S 755 mmHg 87%
    23:00 +28°C° 0 mm 3 m/S 756 mmHg 87%

    18 September, Mittwoch

    Zeit Temperatur Niederschläge Wind Luftdruck Luftfeuchtigkeit
    00:00 +28°C° 0 mm 3 m/S 755 mmHg 87%
    01:00 +28°C° 0 mm 3 m/S 755 mmHg 88%
    02:00 +28°C° 0 mm 3 m/S 755 mmHg 88%
    03:00 +28°C° 0 mm 3 m/S 755 mmHg 89%
    04:00 +28°C° 0 mm 3 m/S 754 mmHg 89%
    05:00 +27°C° 0 mm 3 m/S 754 mmHg 89%
    06:00 +28°C° 0.1 mm 3 m/S 754 mmHg 87%
    07:00 +29°C° 0.1 mm 3 m/S 754 mmHg 85%
    08:00 +30°C° 0.1 mm 4 m/S 755 mmHg 82%
    09:00 +32°C° 0 mm 4 m/S 755 mmHg 77%
    10:00 +33°C° 0 mm 4 m/S 755 mmHg 73%
    11:00 +34°C° 0 mm 5 m/S 755 mmHg 68%
    12:00 +34°C° 0.1 mm 5 m/S 755 mmHg 67%
    13:00 +34°C° 0.1 mm 5 m/S 754 mmHg 66%
    14:00 +34°C° 0.1 mm 5 m/S 754 mmHg 65%
    15:00 +34°C° 0.1 mm 5 m/S 754 mmHg 68%
    16:00 +33°C° 0.1 mm 5 m/S 754 mmHg 70%
    17:00 +33°C° 0.1 mm 5 m/S 753 mmHg 73%
    18:00 +30°C° 0 mm 4 m/S 754 mmHg 77%
    19:00 +29°C° 0 mm 4 m/S 754 mmHg 81%
    20:00 +28°C° 0 mm 3 m/S 754 mmHg 86%
    21:00 +28°C° 0 mm 3 m/S 754 mmHg 86%
    22:00 +28°C° 0 mm 3 m/S 754 mmHg 86%
    23:00 +28°C° 0 mm 2 m/S 754 mmHg 86%

    19 September, Donnerstag

    Zeit Temperatur Niederschläge Wind Luftdruck Luftfeuchtigkeit
    00:00 +27°C° 0 mm 2 m/S 754 mmHg 87%
    01:00 +27°C° 0 mm 2 m/S 754 mmHg 87%
    02:00 +27°C° 0 mm 2 m/S 753 mmHg 88%
    03:00 +27°C° 0 mm 2 m/S 753 mmHg 88%
    04:00 +27°C° 0 mm 2 m/S 753 mmHg 88%
    05:00 +27°C° 0 mm 2 m/S 753 mmHg 88%
    06:00 +28°C° 0 mm 2 m/S 753 mmHg 86%
    07:00 +28°C° 0 mm 3 m/S 753 mmHg 84%
    08:00 +29°C° 0 mm 3 m/S 753 mmHg 82%
    09:00 +30°C° 0 mm 3 m/S 754 mmHg 77%
    10:00 +32°C° 0 mm 4 m/S 754 mmHg 72%
    11:00 +33°C° 0 mm 4 m/S 754 mmHg 67%
    12:00 +33°C° 0 mm 4 m/S 754 mmHg 65%
    13:00 +34°C° 0 mm 5 m/S 754 mmHg 63%
    14:00 +34°C° 0 mm 5 m/S 753 mmHg 60%
    15:00 +33°C° 0 mm 5 m/S 753 mmHg 63%
    16:00 +33°C° 0 mm 4 m/S 753 mmHg 66%
    17:00 +32°C° 0 mm 4 m/S 753 mmHg 69%
    18:00 +30°C° 0 mm 4 m/S 753 mmHg 74%
    19:00 +29°C° 0 mm 3 m/S 754 mmHg 80%
    20:00 +28°C° 0 mm 3 m/S 754 mmHg 85%
    21:00 +28°C° 0.1 mm 3 m/S 754 mmHg 85%
    22:00 +28°C° 0.1 mm 3 m/S 755 mmHg 86%
    23:00 +28°C° 0.1 mm 2 m/S 755 mmHg 86%

    20 September, Freitag

    Zeit Temperatur Niederschläge Wind Luftdruck Luftfeuchtigkeit
    00:00 +28°C° 0.1 mm 2 m/S 755 mmHg 86%
    01:00 +28°C° 0.1 mm 2 m/S 754 mmHg 87%
    02:00 +28°C° 0.1 mm 2 m/S 754 mmHg 87%
    03:00 +27°C° 0 mm 2 m/S 754 mmHg 87%
    04:00 +27°C° 0 mm 2 m/S 754 mmHg 87%
    05:00 +27°C° 0 mm 2 m/S 754 mmHg 87%
    06:00 +28°C° 0 mm 2 m/S 754 mmHg 85%
    07:00 +29°C° 0 mm 2 m/S 755 mmHg 83%
    08:00 +29°C° 0 mm 3 m/S 755 mmHg 81%
    09:00 +30°C° 0 mm 3 m/S 755 mmHg 75%
    10:00 +32°C° 0 mm 4 m/S 756 mmHg 69%
    11:00 +33°C° 0 mm 4 m/S 756 mmHg 63%
    12:00 +33°C° 0 mm 4 m/S 756 mmHg 62%
    13:00 +33°C° 0 mm 5 m/S 755 mmHg 61%
    14:00 +34°C° 0 mm 5 m/S 755 mmHg 60%
    15:00 +33°C° 0 mm 5 m/S 755 mmHg 64%
    16:00 +32°C° 0 mm 5 m/S 755 mmHg 68%
    17:00 +32°C° 0 mm 4 m/S 755 mmHg 72%
    18:00 +30°C° 0 mm 4 m/S 755 mmHg 76%
    19:00 +29°C° 0 mm 3 m/S 755 mmHg 80%
    20:00 +28°C° 0 mm 2 m/S 756 mmHg 84%
    21:00 +28°C° 0 mm 2 m/S 756 mmHg 85%
    22:00 +27°C° 0 mm 2 m/S 756 mmHg 86%
    23:00 +27°C° 0 mm 2 m/S 757 mmHg 87%
    Mehr zeigen